Regional Weather Roundup
Issued by NWS Sterling, VA

Home | Current Version | Previous Version | Graphics & Text | Print | Product List | Glossary On
Versions: 1 2 3 4 5 6 7 8 9 10 11 12 13 14 15 16 17 18 19 20 21 22 23 24 25 26 27 28
000
ASUS41 KLWX 300810
RWRLWX

REGIONAL WEATHER ROUNDUP
NATIONAL WEATHER SERVICE BALTIMORE MD/WASHINGTON DC
400 AM EDT FRI SEP 30 2016

Note: "FAIR" indicates few or no clouds below 12,000 feet
with no significant weather and/or obstructions to visibility.
 TC=TEMPERATURE CELSIUS

 * =Non NWS site. Station does not report precipitation (e.g. rain,
    snow, etc.), thunder, or fog.

DCZ001-MDZ009-015-VAZ040>042-051-053>054-300900-
WASHINGTON METRO

CITY           SKY/WX    TMP DP  RH WIND       PRES   REMARKS
WASHINGTON NAT CLOUDY    64  63  96 NE17      30.12F
DULLES         LGT RAIN  62  59  90 NE10      30.13S
ANDREWS AFB    CLOUDY    63  59  88 NE16G23   30.10F
FT BELVOIR     CLOUDY    63  60  92 VRB2      30.11S
QUANTICO       CLOUDY    66  62  87 NE17G26   30.11S
LEESBURG*      DRIZZLE   61  61 100 NE7       30.15S
MANASSAS*      CLOUDY    63  63 100 NE9       30.12S
GAITHERSBURG*  CLOUDY    61  55  82 NE8       30.18S

$$

MDZ006>007-011-014-300900-
BALTIMORE METRO

CITY           SKY/WX    TMP DP  RH WIND       PRES   REMARKS
BWI AIRPORT    DRIZZLE   60  58  92 NE21      30.15S
MD SCIENCE CTR   N/A     61  57  87 MISG      30.17R
ANNAPOLIS      LGT RAIN  64  60  87 NE9G21    30.13R

$$

MDZ012-015-019>023-300900-
MARYLAND EASTERN SHORE

CITY           SKY/WX    TMP DP  RH WIND       PRES   REMARKS
OCEAN CITY     CLOUDY   N/A N/A N/A E16G26    30.04S
SALISBURY      HVY RAIN  69  69 100 CALM      30.05R VSB 1

$$

MDZ017>025-300900-
SOUTHERN MARYLAND

CITY           SKY/WX    TMP DP  RH WIND       PRES   REMARKS
PATUXENT RIVER CLOUDY    67  64  90 NE17      30.06S
ST INIGOES     CLOUDY    68  66  93 NE8G17    30.05S
LEONARDTOWN*   NOT AVBL

$$

MDZ003>005-300900-
NORTH CENTRAL MARYLAND

CITY           SKY/WX    TMP DP  RH WIND       PRES   REMARKS
FREDERICK*     NOT AVBL
HAGERSTOWN APT RAIN      58  55  90 NE12      30.18S FOG

$$

MDZ501>502-300900-
WESTERN MARYLAND

CITY           SKY/WX    TMP DP  RH WIND       PRES   REMARKS
OAKLAND*       NOT AVBL
CUMBERLAND*    CLOUDY    59  59 100 N5        30.21F

$$

VAZ025>031-300900-
SHENANDOAH VALLEY

CITY           SKY/WX    TMP DP  RH WIND       PRES   REMARKS
WINCHESTER*    DRIZZLE   61  59  94 CALM      30.16R
FRONT ROYAL*   CLOUDY    59  59 100 N5        30.14S
LURAY*         CLOUDY   N/A N/A N/A N10G17    30.12S
NEW MARKET*    CLOUDY   N/A N/A N/A N10G18    30.11S
STAUNTON*      CLOUDY    62  60  92 NE8       30.11R
WAYNESBORO*    CLOUDY    63  61  94 CALM      30.09S

$$

WVZ021-048>050-054>055-300900-
EASTERN WEST VIRGINIA PANHANDLE

CITY           SKY/WX    TMP DP  RH WIND       PRES   REMARKS
MARTINSBURG    LGT RAIN  59  57  93 N9        30.16F FOG
PETERSBURG*    CLOUDY    61  59  93 N7        30.13S

$$

VAZ036>039-050-300900-
CENTRAL FOOTHILLS

CITY           SKY/WX    TMP DP  RH WIND       PRES   REMARKS
CHARLOTTESVILL CLOUDY    64  62  93 NE16      30.08S FOG
CULPEPER*      DRIZZLE   63  63  99 N6        30.12S
ORANGE*          N/A     63  63 100 N7        30.11S FOG
GORDONSVILLE*  CLOUDY    63  63 100 NE6       30.09S FOG
WARRENTON*     DRIZZLE   63  58  85 NE8       30.11S

$$

VAZ055>057-300900-
NORTH AND CENTRAL PIEDMONT

CITY           SKY/WX    TMP DP  RH WIND       PRES   REMARKS
FREDERICKSBRG* CLOUDY    65  65 100 NE3       30.08S
STAFFORD*      DRIZZLE   64  64 100 NE10G20   30.13S

$$

NCZ024-NYZ072-PAZ021-071-VAZ022-071-300900-
OTHER REGIONAL OBSERVATIONS

CITY           SKY/WX    TMP DP  RH WIND       PRES   REMARKS
NEW YORK CITY  CLOUDY    58  50  75 NE10G20   30.33F
PHILADELPHIA   LGT RAIN  58  56  93 NE18G31   30.19F FOG
PITTSBURGH     CLOUDY    58  57  97 NE12      30.16S
ROANOKE        MOCLDY    68  67  96 CALM      30.03F
RICHMOND       CLOUDY    67  67 100 NE5       30.04S FOG
RALEIGH        MOCLDY    73  71  93 SE9       29.99F

$$

ANZ530>537-300900-
MARINE OBSERVATIONS

STATION/POSITION TIME  TEMP    WIND        PRES
                       AIR SEA DIR/SP/G
                 (UTC) (F)     (DEG/KT/KT) (MB)
THOMAS PT LIGHT  0800   63 71   40/ 22/ 24 1021.0R
BALT KEY BRIDGE  0742   62      30/ 12/ 16 1021.2R
COVE POINT       0742   66      70/ 24/ 30 1018.5R
LEWISETTA        0742   70 72   60/ 12/ 20 1016.8S
SOLOMONS ISLAND  0742   67 73   30/ 14/ 20   N/A
PINEY POINT      0736           60/ 12/ 16   N/A

$$





USA.gov is the U.S. government's official web portal to all federal, state and local government web resources and services.